GFSFLT2_sfc_30mbdewp_060.txt.gz
Dewpoint
66 66 66 66 65 63 63 66 66 67 66 66 65 64 64 63 63 62 60 58 55 52 51 50 52 53 56 56 55 54 52 52
65 65 65 63 63 62 61 65 66 67 66 66 66 64 64 63 62 61 59 56 52 50 48 47 48 52 55 55 55 54 52 53
64 64 63 62 63 63 62 65 66 66 65 65 65 64 63 61 61 60 58 55 51 49 50 46 45 51 51 50 51 52 53 54
61 60 60 62 62 62 64 65 65 64 63 63 62 62 61 61 61 59 57 55 53 50 49 48 46 42 44 44 46 50 53 54
59 59 59 59 61 63 62 62 61 60 61 60 61 61 60 60 59 57 56 55 53 49 46 47 46 41 39 40 41 46 49 53
59 59 58 59 60 59 60 59 58 58 58 60 59 58 57 57 56 54 53 52 50 48 48 47 44 40 37 37 36 36 41 48
57 57 57 58 58 58 58 58 58 58 57 58 57 55 55 55 54 52 50 50 47 48 51 46 43 42 38 36 37 35 34 40
57 56 57 57 57 57 57 57 58 58 57 57 54 54 53 53 52 50 49 51 47 50 49 46 44 38 36 36 38 38 40 37
55 56 56 56 55 56 56 56 56 57 58 56 54 53 52 53 52 50 50 51 50 52 50 48 45 41 36 35 36 41 43 38
55 55 55 54 54 55 53 54 54 55 56 57 56 54 53 54 55 53 53 53 52 52 50 49 46 42 37 36 35 36 40 40
54 54 54 54 53 53 53 53 53 53 53 55 56 56 57 56 55 56 56 55 54 52 50 48 46 44 39 37 36 35 34 40
53 53 53 52 52 53 54 54 53 53 51 52 55 56 57 56 56 56 57 56 53 51 49 49 48 47 41 38 36 36 35 35
53 52 52 53 52 52 51 51 52 53 53 53 54 56 56 56 56 56 57 55 53 51 50 49 49 47 40 38 38 39 38 36
53 52 52 52 52 51 50 50 50 50 53 53 53 55 57 57 57 57 57 55 53 52 50 49 49 45 41 39 36 39 40 38
52 51 51 51 51 49 49 49 50 48 49 51 53 53 56 57 57 57 57 56 54 52 51 49 48 46 41 40 38 37 39 40
52 51 50 50 49 48 48 47 46 46 46 48 50 55 57 57 57 58 57 56 55 54 53 51 48 47 45 43 42 40 37 36
50 50 49 49 48 47 48 48 47 47 49 51 52 54 57 58 58 58 57 57 56 54 53 52 50 49 46 44 44 41 40 38
48 48 50 47 47 48 50 50 49 49 50 51 52 52 55 57 58 58 58 57 56 55 55 53 51 49 48 46 46 42 41 41
49 48 49 48 47 48 52 52 52 53 49 49 51 52 55 56 57 57 57 57 56 56 55 53 52 50 49 49 46 45 45 43
49 49 49 49 47 48 49 53 54 55 53 50 50 52 54 56 57 57 57 57 56 56 54 53 51 50 49 47 45 45 45 43

GFSFLT2_sfc_30mbdewp_063.txt.gz
Dewpoint
66 65 66 66 64 63 63 63 65 64 65 65 65 64 63 62 61 59 57 55 55 54 57 59 59 58 57 56 55 54 52 52
65 65 65 64 64 62 60 60 63 64 65 65 65 64 63 61 60 58 55 54 54 54 56 58 59 57 56 56 56 54 52 53
64 64 63 62 61 59 58 60 61 63 64 64 63 63 62 59 58 56 55 55 55 53 53 58 58 57 56 56 53 53 53 53
63 62 61 60 59 59 58 59 59 60 61 63 63 61 60 59 58 55 55 53 53 54 50 49 49 51 54 52 52 53 53 54
61 61 61 60 59 59 57 57 59 61 61 62 61 60 60 58 57 55 54 50 48 46 47 43 41 43 44 47 50 52 53 55
59 60 61 60 60 59 61 61 62 62 62 61 60 58 57 57 54 54 51 49 47 47 48 44 39 40 40 43 46 49 52 54
58 59 59 60 60 60 60 60 60 60 61 61 59 56 55 54 53 51 50 48 47 49 46 43 40 37 37 36 35 40 47 52
58 58 59 59 59 59 58 59 59 59 59 59 56 55 54 53 51 49 49 47 48 50 46 44 42 38 36 37 36 33 36 44
56 57 58 57 58 58 58 59 59 58 58 56 54 54 53 52 50 49 48 48 48 51 48 46 41 37 35 37 38 41 37 36
56 57 57 56 56 56 57 57 58 58 57 55 54 53 53 52 50 49 50 51 49 51 50 47 43 39 36 35 37 42 41 37
55 56 55 55 55 55 55 55 55 56 56 55 54 53 53 52 51 51 52 52 52 51 50 48 46 43 39 37 36 36 39 40
55 55 55 54 54 54 54 54 53 53 54 55 55 55 54 53 53 54 55 54 53 53 50 49 48 45 41 38 36 37 36 38
53 53 53 52 52 52 52 52 52 52 52 53 55 56 57 56 56 55 56 55 54 53 51 49 48 47 41 39 39 37 37 35
52 52 52 52 52 51 51 52 52 51 52 53 53 54 55 57 56 56 56 55 54 52 50 49 49 46 43 39 36 38 40 39
52 52 52 52 51 51 49 50 50 49 49 52 52 53 55 56 56 56 56 56 54 52 51 50 48 48 43 42 39 38 39 40
52 52 52 52 52 49 49 48 48 48 47 49 50 52 53 54 56 57 56 56 55 54 53 51 50 48 46 43 42 41 38 38
52 52 51 51 51 49 49 48 48 48 47 47 47 50 53 55 56 56 56 56 56 55 54 52 51 51 48 45 44 44 43 40
52 51 50 50 50 49 49 48 47 47 46 47 48 50 52 55 56 57 57 57 56 56 55 54 53 52 50 48 46 45 44 43
50 51 50 50 49 49 48 48 48 48 47 48 47 49 51 53 55 56 57 57 57 56 56 55 54 52 50 49 48 48 46 44
50 49 50 50 49 48 48 48 49 49 50 48 49 50 50 52 54 56 57 57 57 56 56 55 54 52 51 49 48 48 47 45

GFSFLT2_sfc_30mbdewp_069.txt.gz
Dewpoint
65 64 64 65 65 65 65 66 65 65 64 64 64 63 64 62 60 61 63 64 63 61 60 59 58 58 58 57 56 55 52 52
63 64 64 65 65 64 63 64 63 63 64 64 64 64 63 61 61 63 64 63 61 60 59 59 58 58 57 57 56 55 52 52
64 64 63 63 64 63 63 62 62 61 62 63 63 62 61 57 57 63 63 61 59 59 59 59 58 58 57 57 54 51 51 51
63 63 62 62 62 60 60 60 59 59 61 61 61 61 58 55 59 61 62 61 60 59 59 58 54 52 54 55 51 53 51 51
61 62 62 61 61 61 61 60 59 60 60 61 60 57 56 56 57 57 59 60 57 56 56 51 52 51 51 51 53 52 52 51
61 61 61 61 61 60 61 60 60 59 59 60 57 56 55 54 52 52 54 57 57 56 52 52 52 50 51 52 52 51 52 52
60 60 60 59 58 59 59 58 57 60 61 58 54 52 52 51 51 49 48 51 52 51 50 49 49 50 50 51 52 52 53 52
59 60 59 58 57 58 59 59 59 60 60 58 56 52 52 50 49 48 47 47 48 47 47 46 45 46 48 50 51 52 53 53
59 60 60 58 57 57 58 60 60 59 60 59 56 54 53 50 48 48 49 48 45 44 44 43 41 41 41 45 47 50 52 53
58 59 59 58 58 58 59 61 60 60 61 58 56 54 53 50 48 49 51 50 46 44 42 40 39 38 39 38 37 40 45 51
58 58 58 59 59 59 59 60 59 60 60 58 56 54 53 51 49 50 52 52 50 48 46 43 41 39 39 40 40 41 41 37
57 57 57 58 58 58 58 59 59 59 59 58 55 53 53 53 52 51 52 53 52 51 49 49 45 42 37 38 40 41 42 42
56 56 56 56 56 56 56 55 56 58 58 57 55 54 53 53 52 52 53 52 52 53 52 51 49 47 44 43 42 41 40 39
55 55 55 56 56 55 54 55 55 55 57 57 55 54 53 53 52 53 53 54 54 53 53 52 52 49 47 45 45 45 42 41
53 55 55 55 55 54 55 54 54 55 55 56 56 54 54 54 54 54 55 56 54 55 54 53 52 51 49 49 45 45 44 43
54 54 53 54 54 53 54 52 51 52 54 54 55 56 56 57 56 57 56 57 57 56 56 55 54 52 50 48 48 46 46 45
53 53 53 53 53 52 53 53 52 53 52 53 53 55 56 56 56 56 56 56 57 57 56 55 54 53 51 50 48 47 46 46
52 52 52 53 52 52 51 52 52 49 49 50 51 53 54 54 53 55 55 56 56 57 57 56 55 54 54 53 51 49 47 45
51 51 51 52 52 51 51 51 52 51 49 49 49 49 49 51 54 54 54 55 55 56 56 56 56 55 55 54 53 51 50 49
50 50 50 52 52 51 51 51 50 50 51 49 49 49 49 50 52 52 53 54 55 55 56 56 56 56 56 56 54 53 53 52

GFSFLT2_sfc_30mbdewp_072.txt.gz
Dewpoint
64 63 63 65 65 63 63 67 66 66 66 65 65 65 65 64 64 63 64 63 62 61 60 60 59 59 58 56 54 53 48 49
64 63 62 61 63 64 63 63 65 65 65 65 65 64 62 62 63 64 64 63 61 60 60 60 59 58 57 56 54 51 48 48
64 64 64 65 64 62 61 62 64 64 63 63 64 62 60 59 60 64 64 62 60 60 60 59 59 58 57 55 54 48 48 48
63 63 64 63 64 63 63 63 63 62 62 61 61 61 59 54 62 64 62 60 60 60 59 58 54 51 52 54 47 48 48 48
63 62 62 62 62 61 61 61 61 61 61 60 61 60 56 58 61 61 58 56 52 54 54 49 47 47 48 47 50 48 48 49
60 62 61 61 61 60 60 59 59 60 60 60 61 57 55 57 58 57 54 53 51 50 48 48 48 47 48 49 49 48 48 49
61 62 61 61 61 61 59 58 57 59 60 59 59 55 53 54 55 55 53 54 53 50 49 49 47 46 48 49 49 49 50 48
61 61 61 61 61 61 60 58 57 59 60 58 57 55 53 50 52 52 53 54 53 49 47 45 44 45 46 47 48 49 50 50
60 60 59 59 59 60 59 59 59 59 59 57 54 53 51 51 48 47 48 49 49 47 47 44 43 43 44 46 47 48 49 50
59 60 59 59 59 59 59 60 60 59 59 56 52 50 52 50 47 46 46 48 46 45 43 43 41 40 41 42 43 46 48 49
59 59 59 58 58 59 60 60 60 60 60 57 54 51 51 47 47 47 49 45 44 45 44 43 41 39 39 38 38 39 44 45
58 58 59 58 58 58 59 59 59 60 59 57 55 51 51 47 47 51 51 48 48 47 46 45 44 42 39 40 41 41 41 39
57 57 58 58 58 57 56 57 58 59 58 58 56 52 50 49 47 51 53 51 50 51 51 50 47 46 43 44 43 44 43 42
56 57 57 57 57 57 57 56 58 58 58 58 56 54 50 52 52 53 53 53 53 53 53 52 52 51 48 49 47 47 45 44
54 56 57 57 58 58 57 57 57 57 57 57 57 55 52 53 54 53 54 53 53 54 54 53 53 53 52 50 48 45 48 48
53 54 55 56 56 55 54 54 53 55 55 56 57 56 54 54 54 54 54 54 53 55 56 54 53 53 53 52 52 50 46 46
53 54 54 55 55 55 54 52 52 54 55 55 55 57 57 54 55 55 54 55 56 55 56 55 54 53 53 52 51 51 50 49
53 53 53 54 55 55 54 53 52 53 54 54 55 56 56 56 55 55 54 56 55 53 56 57 55 54 52 53 52 50 50 50
51 51 51 53 54 54 54 54 54 53 53 53 53 54 54 53 55 55 54 52 54 54 53 53 53 53 53 53 54 54 53 52
51 50 50 51 53 53 53 53 54 53 53 52 53 52 52 53 54 54 53 53 53 54 54 53 53 54 54 54 53 54 55 54

GFSFLT2_sfc_30mbdewp_075.txt.gz
Dewpoint
65 65 64 64 64 61 61 66 66 67 67 67 66 65 64 64 64 64 63 63 63 62 61 61 60 59 56 55 53 52 47 48
66 64 63 62 63 64 64 65 65 65 66 66 65 64 64 64 65 64 63 62 62 61 61 60 60 58 56 53 52 50 47 47
64 64 63 63 62 63 63 62 65 64 64 64 63 63 63 62 63 64 63 62 61 61 60 60 59 57 55 53 52 47 47 47
64 64 64 64 64 63 62 62 63 65 63 61 62 60 62 61 64 63 62 61 61 61 60 58 53 49 50 53 50 47 47 49
61 62 63 64 63 64 63 63 63 63 61 60 62 61 59 62 63 61 59 57 53 55 55 49 46 45 49 48 48 47 47 49
61 61 62 61 61 61 62 62 63 61 60 61 62 61 58 61 60 57 52 49 50 49 49 48 47 46 48 49 48 46 47 50
61 61 61 60 59 60 60 60 61 61 61 61 61 60 57 58 58 55 50 51 50 48 48 48 47 47 48 49 48 47 48 49
62 62 61 61 60 59 59 59 59 60 60 61 61 58 57 57 57 55 53 53 50 48 48 47 46 46 48 48 48 49 48 49
61 61 61 61 60 61 59 58 58 60 59 60 59 56 56 56 56 54 53 53 52 49 47 45 44 44 46 47 48 49 49 49
60 61 60 60 61 60 59 58 58 59 60 59 58 55 54 55 53 53 53 53 50 47 45 43 43 43 44 45 45 47 49 50
59 60 59 59 60 60 59 58 58 59 60 58 57 55 53 51 50 50 53 51 49 46 45 43 42 41 42 42 43 44 47 48
58 59 59 59 59 59 59 59 59 59 59 57 54 54 53 51 50 51 50 49 47 45 46 45 43 41 39 40 41 41 43 45
56 58 59 58 58 58 57 57 57 58 58 56 55 51 51 50 49 52 51 46 46 49 48 47 46 45 42 43 44 46 45 42
56 58 58 58 58 58 57 56 57 58 59 57 54 54 51 50 50 52 52 49 51 52 52 50 49 49 45 46 46 46 47 47
54 57 58 57 57 57 57 58 57 57 57 58 56 55 53 48 50 53 54 54 54 55 55 53 52 52 53 50 47 47 49 49
54 56 57 58 58 57 57 55 55 55 56 56 57 56 55 50 53 54 56 55 55 56 56 55 53 52 52 53 53 53 47 48
52 55 56 57 58 58 56 55 55 56 57 55 55 56 55 54 54 55 54 54 55 56 56 55 55 52 53 53 51 52 53 49
52 54 55 56 56 56 56 56 55 55 56 55 54 56 56 55 54 54 54 54 54 54 54 55 56 53 52 54 51 50 50 50
51 52 53 55 55 56 56 55 55 54 55 55 55 53 55 55 54 53 52 52 53 53 54 55 54 53 52 51 51 52 52 51
51 50 50 52 55 55 55 55 54 54 54 53 54 54 54 55 55 53 52 52 53 54 53 54 53 54 53 54 51 52 53 53

GFSFLT2_sfc_30mbdewp_078.txt.gz
Dewpoint
66 65 64 65 63 63 61 61 61 64 67 68 67 66 65 65 65 65 65 63 63 62 62 61 59 57 55 54 52 53 51 52
66 67 65 64 65 63 62 62 61 63 66 66 65 65 65 65 64 64 64 63 62 61 61 60 59 56 53 51 52 53 50 51
66 66 65 65 65 65 62 62 59 65 65 65 64 63 64 64 63 63 63 63 62 61 61 59 57 53 52 54 53 49 51 53
65 65 64 64 64 64 64 63 64 64 65 63 63 63 63 62 63 63 62 62 61 61 60 57 53 52 53 51 51 50 52 53
64 64 64 63 63 64 62 63 64 64 64 63 62 62 62 62 62 61 61 61 59 59 57 52 49 50 50 51 52 50 52 53
60 63 63 62 62 63 63 63 64 62 62 61 60 61 62 62 60 58 56 55 55 55 52 51 48 48 51 51 49 51 52 54
61 62 61 61 60 60 63 62 63 61 61 61 60 60 60 60 59 53 51 52 52 51 51 51 50 48 52 50 50 51 52 53
62 62 62 60 60 59 59 60 62 60 60 61 60 61 61 59 58 51 52 51 50 50 52 51 50 50 50 51 50 51 52 53
61 62 62 61 60 59 59 59 60 60 60 61 61 60 59 58 57 53 54 52 50 51 50 50 49 49 50 51 51 51 52 53
60 62 62 61 61 60 59 59 59 59 60 60 60 59 58 57 57 55 55 53 52 52 49 48 48 48 49 49 50 50 52 52
59 60 60 61 60 59 58 58 59 59 59 58 57 58 56 56 57 57 57 54 54 50 49 47 47 47 48 48 49 49 50 51
58 60 59 60 60 59 58 57 59 59 58 57 57 57 56 56 57 57 55 54 52 49 49 48 46 46 43 45 47 48 49 50
58 58 58 59 58 58 57 56 57 59 59 58 58 56 55 54 52 53 52 51 48 48 49 46 46 47 44 44 43 45 46 46
58 58 58 58 58 58 57 57 57 57 58 55 55 55 54 53 52 52 50 49 48 51 50 49 49 49 46 46 45 46 47 48
56 57 58 58 58 58 57 57 57 56 57 56 55 55 53 52 53 53 52 51 52 52 52 51 50 49 50 49 48 47 48 49
55 57 57 58 58 57 57 55 55 55 55 56 55 55 54 51 53 54 54 54 54 54 55 55 54 51 52 53 54 53 48 48
54 56 55 57 57 57 57 56 55 55 56 57 56 55 55 55 52 55 55 56 56 56 56 56 55 54 52 52 51 52 52 49
54 54 56 56 57 57 56 56 55 55 56 56 56 55 55 55 55 56 57 56 57 57 56 57 56 53 53 53 51 50 50 49
54 55 54 56 57 57 57 56 55 56 55 55 54 55 54 54 55 55 55 55 55 56 56 56 55 52 52 52 53 52 52 51
52 54 53 56 57 57 57 56 56 56 56 55 53 52 53 53 55 54 54 53 53 53 53 54 54 54 52 53 52 52 52 53

GFSFLT2_sfc_30mbdewp_084.txt.gz
Dewpoint
65 66 66 65 64 64 64 64 64 62 63 63 64 64 65 65 65 65 65 65 65 64 64 62 60 57 59 59 58 56 55 55
64 65 65 64 64 63 62 64 62 62 63 63 65 64 65 64 65 65 64 64 64 63 62 60 58 57 58 58 57 56 55 54
65 64 64 64 63 63 62 62 62 61 62 62 63 61 64 63 65 65 64 63 63 63 61 59 56 58 58 58 55 54 54 55
64 65 64 64 63 63 62 62 62 61 61 60 62 64 63 64 65 64 64 63 62 61 59 56 53 55 56 55 54 54 55 56
63 64 64 65 64 62 62 62 61 60 61 60 63 63 64 64 63 63 62 62 61 59 57 52 51 51 52 54 54 54 55 55
63 63 63 63 64 63 62 61 60 60 63 64 63 63 63 62 62 61 61 59 58 56 53 50 51 51 53 53 54 54 55 54
63 63 62 62 62 62 62 62 61 62 63 63 63 62 62 61 61 60 58 57 56 53 51 49 49 51 53 53 53 54 55 55
62 61 61 60 60 60 62 62 62 62 63 62 62 62 61 60 59 58 57 55 53 51 49 48 48 50 52 53 53 54 54 55
60 60 59 58 58 59 61 62 62 62 62 62 62 61 60 59 56 55 55 53 51 51 49 49 47 51 52 53 53 53 54 54
60 60 58 58 58 59 60 61 62 62 61 61 61 61 60 55 53 53 53 50 50 51 50 48 47 50 52 52 53 53 54 54
60 59 58 58 58 59 59 60 60 61 61 60 61 61 59 54 51 52 52 47 50 52 51 49 48 50 51 52 52 53 53 54
60 60 59 58 57 57 59 59 60 60 60 60 61 60 59 54 52 53 53 46 50 52 50 50 49 49 49 51 52 53 53 53
59 59 60 58 57 56 55 56 58 59 59 60 60 60 60 57 54 55 54 49 50 51 49 49 48 49 48 47 49 52 52 52
58 59 59 58 57 57 57 57 58 58 58 59 59 59 58 58 54 56 53 54 51 50 48 48 48 48 47 45 43 45 49 51
56 57 59 59 58 57 57 57 57 57 57 57 58 57 57 58 56 56 56 55 51 50 49 47 46 48 46 46 43 42 44 47
56 56 58 58 58 57 56 55 53 54 56 56 57 57 55 55 56 55 55 54 52 50 49 47 47 47 47 51 49 49 42 42
56 56 55 56 58 57 56 55 56 56 55 54 55 56 55 54 55 54 54 56 53 51 50 49 48 48 46 51 52 53 51 49
56 56 55 55 57 57 57 56 56 56 55 54 54 54 55 54 54 54 53 56 55 53 52 50 50 48 49 48 50 51 50 50
56 56 55 56 57 57 57 56 55 55 55 54 52 53 54 54 53 54 53 54 54 53 54 53 53 51 50 49 49 50 51 51
55 56 56 57 57 57 57 56 55 55 56 55 53 52 53 53 54 54 55 54 55 54 54 54 55 54 52 51 51 51 52 51

GFSFLT2_sfc_30mbdewp_087.txt.gz
Dewpoint
66 67 67 67 67 67 66 66 65 64 64 63 63 63 64 63 63 64 65 65 65 66 65 63 62 62 61 59 58 57 55 55
65 66 65 66 66 66 65 64 65 64 64 63 64 64 62 63 63 62 63 65 65 65 63 60 61 61 60 58 58 56 54 54
64 65 65 64 63 63 63 63 63 63 64 64 64 62 64 63 63 61 62 64 64 63 61 59 61 60 59 58 56 54 54 54
63 64 64 63 63 63 62 63 62 62 63 64 64 63 64 63 63 62 62 64 63 62 58 59 59 58 58 56 54 54 55 55
63 64 64 63 62 62 61 62 62 61 61 61 62 61 64 63 63 64 63 62 61 59 56 55 57 56 54 54 54 55 55 56
62 63 64 63 62 61 61 61 61 60 61 61 60 62 62 62 63 63 62 60 59 57 52 52 54 53 54 54 54 55 55 56
62 62 63 63 62 62 61 60 60 60 62 61 61 61 61 63 62 61 60 59 57 54 51 51 52 53 54 54 54 54 54 55
62 62 62 62 62 62 62 61 60 61 62 62 62 62 62 62 60 59 58 57 55 53 50 50 52 53 53 53 54 54 54 54
61 61 61 60 60 61 62 62 61 61 62 63 63 62 62 61 60 58 57 56 54 52 49 49 51 52 53 53 54 54 54 55
60 60 59 58 58 59 61 62 61 62 62 62 62 62 61 59 58 56 55 53 52 51 49 49 51 52 52 53 53 54 54 54
59 59 57 57 57 57 59 61 62 61 61 62 62 61 59 57 56 54 52 51 51 50 49 49 51 51 52 52 53 53 54 54
59 58 57 56 57 58 59 60 60 61 61 61 62 61 58 55 54 53 51 49 51 50 49 49 51 51 51 52 52 53 53 53
58 58 57 56 55 56 57 57 58 59 60 61 61 60 57 55 55 53 50 48 50 51 49 48 50 51 50 50 50 52 52 53
58 58 56 56 56 55 56 57 58 59 59 60 61 60 57 54 55 52 50 47 51 51 48 48 49 50 49 47 47 49 51 52
57 57 57 57 57 56 57 57 57 57 57 58 59 60 59 56 56 53 53 47 51 51 49 48 47 48 49 47 44 45 47 49
58 57 57 57 57 56 56 55 55 56 56 57 58 58 59 58 56 57 54 53 51 51 50 48 48 48 48 49 47 46 45 44
56 57 56 56 57 56 56 56 55 55 56 56 57 57 57 58 57 56 56 55 53 51 50 49 49 49 47 49 50 50 49 45
56 55 56 56 56 57 56 56 54 55 55 55 56 56 56 56 56 56 55 55 53 52 51 50 49 49 48 48 48 48 48 48
55 54 54 55 57 57 56 56 55 54 54 54 54 55 55 54 55 55 54 56 55 54 53 51 51 49 49 48 50 51 50 50
54 54 53 53 55 56 56 56 56 55 55 54 54 54 54 55 54 54 54 54 56 55 54 54 54 52 50 49 49 51 52 51

GFSFLT2_sfc_30mbdewp_090.txt.gz
Dewpoint
67 67 69 68 68 67 66 65 64 64 63 63 63 62 62 62 62 63 64 64 66 66 65 65 64 63 62 61 59 58 57 58
65 66 67 68 67 66 66 65 64 64 64 64 62 62 62 64 63 62 62 65 65 65 64 64 63 62 60 59 58 56 55 55
64 65 66 66 66 66 66 65 64 64 65 65 64 63 64 63 63 62 62 62 64 63 63 63 62 60 59 58 55 54 54 55
63 64 64 64 64 64 63 64 64 63 63 63 64 63 62 63 63 62 62 63 64 61 62 62 60 59 58 56 54 54 55 55
63 63 63 63 63 62 62 62 62 62 63 63 63 62 63 62 62 63 64 64 62 59 61 59 58 58 55 54 54 55 55 56
63 63 63 63 62 62 61 61 61 61 61 62 63 61 63 62 62 63 64 62 59 56 57 57 57 55 54 54 54 55 55 55
61 63 62 62 62 61 61 60 60 60 61 61 62 62 61 62 62 63 62 61 57 53 54 55 54 54 54 54 54 55 55 56
61 62 62 61 62 61 61 61 60 60 61 61 61 61 61 62 62 62 60 59 56 52 53 54 53 54 53 54 54 55 55 56
61 61 61 61 61 61 61 61 60 60 60 62 61 61 61 61 61 60 59 57 54 50 51 52 53 53 53 53 54 54 54 55
61 61 60 60 60 60 61 62 61 61 61 62 62 62 61 61 60 59 58 56 53 50 50 52 52 53 53 53 54 54 54 55
59 59 59 59 59 58 61 62 61 61 62 62 62 61 61 60 59 57 56 55 53 50 50 52 52 52 53 53 53 54 54 54
59 58 57 57 57 57 59 60 61 61 61 62 61 60 59 58 57 54 54 53 52 50 49 52 52 52 52 52 53 53 54 54
59 57 56 56 56 55 56 57 59 59 61 61 61 60 58 56 55 54 52 52 51 49 49 50 51 52 51 50 51 52 53 53
59 57 56 56 55 55 56 58 58 59 60 60 61 59 58 56 54 53 50 50 51 49 49 50 50 51 50 49 48 50 51 52
58 57 57 55 55 55 56 57 58 57 58 59 60 59 58 57 56 54 49 50 51 50 49 49 49 50 50 48 46 47 49 50
58 57 56 55 55 55 55 54 54 56 57 58 59 58 57 57 55 54 52 49 51 51 50 49 50 49 49 49 48 47 47 47
57 56 56 56 55 55 54 54 55 56 57 57 57 58 57 57 56 54 52 51 52 52 50 49 50 49 49 49 49 48 47 45
56 56 55 55 55 55 55 55 55 55 56 56 56 57 58 57 57 55 52 52 52 52 51 50 49 50 49 49 48 47 46 47
55 55 54 55 55 55 55 55 55 54 55 55 56 56 56 57 57 56 54 49 47 52 52 51 50 49 49 48 49 48 49 48
54 55 55 55 55 54 55 56 55 55 55 54 54 55 56 56 57 56 54 54 52 54 52 52 51 50 49 49 49 50 51 50

GFSFLT2_sfc_30mbdewp_096.txt.gz
Dewpoint
68 67 67 67 67 68 68 68 68 67 67 68 68 66 65 64 63 63 65 64 64 65 66 66 65 65 63 63 62 61 58 59
67 68 67 66 67 67 67 68 67 67 67 66 66 65 65 64 63 63 64 65 65 65 65 66 65 63 62 62 61 60 58 57
67 67 67 66 68 67 67 67 66 66 65 64 64 63 63 63 61 64 64 64 63 63 65 65 63 62 61 61 60 58 57 55
66 66 66 66 67 68 67 66 66 65 64 64 63 62 62 60 60 61 61 62 62 61 64 63 62 61 61 60 58 57 55 54
65 66 66 66 66 67 67 67 66 65 65 63 62 62 61 61 61 62 62 62 61 63 64 61 61 61 59 58 56 56 53 52
65 65 65 66 65 66 66 66 65 64 64 65 63 63 63 62 61 61 61 62 61 63 63 61 61 60 58 57 56 53 52 51
64 65 65 64 64 64 65 65 65 64 63 64 64 63 63 62 61 61 62 62 63 63 62 61 60 59 57 56 56 53 52 50
63 64 64 64 64 63 64 64 64 64 64 63 64 63 63 62 61 61 63 62 63 63 62 60 60 57 57 56 55 54 52 50
62 64 64 64 64 63 63 63 63 63 63 63 63 63 62 62 62 62 62 62 62 62 61 60 57 56 55 55 54 51 50 50
60 62 63 64 64 63 62 62 63 62 62 63 62 62 61 62 62 62 62 61 61 60 60 58 56 55 54 54 51 50 51 50
58 61 63 63 63 63 62 63 62 62 61 61 62 62 62 62 62 62 61 60 59 60 59 57 55 54 53 53 51 51 52 52
58 61 62 63 62 63 62 63 62 62 62 61 61 62 61 62 62 61 59 58 58 59 58 58 56 53 51 52 51 52 52 52
56 60 62 62 61 60 60 60 61 61 61 62 61 62 61 61 61 60 59 57 57 57 57 56 55 54 51 53 53 53 53 53
55 58 61 61 61 60 59 59 60 60 61 61 62 61 59 60 60 59 58 57 57 57 56 55 54 54 52 51 51 53 53 53
54 57 60 60 60 59 59 58 58 58 60 60 60 59 59 58 59 59 58 57 56 57 56 55 53 54 53 50 48 47 50 52
53 58 58 60 60 59 57 56 55 56 57 58 60 60 58 58 58 58 58 58 56 55 56 55 54 53 53 51 49 46 47 49
55 58 58 59 59 58 57 55 53 56 57 58 59 59 59 58 57 58 57 57 56 56 56 55 54 53 53 52 52 52 49 46
57 58 57 58 59 58 57 55 53 55 56 57 58 58 58 57 56 55 56 56 55 55 54 54 54 54 52 52 50 50 50 47
57 57 57 57 57 57 57 55 54 54 55 57 57 57 57 56 56 55 55 55 54 53 54 53 54 54 54 52 51 50 48 46
57 57 57 57 57 56 56 55 54 54 55 57 57 57 57 57 56 56 55 55 55 55 54 54 54 55 52 53 52 51 49 48

GFSFLT2_sfc_30mbdewp_099.txt.gz
Dewpoint
66 66 66 67 68 68 69 68 68 68 68 67 67 67 66 66 66 66 66 66 66 65 64 66 64 65 64 62 62 62 59 61
66 66 66 66 66 67 68 68 68 67 67 66 67 66 66 65 65 66 65 64 65 64 64 66 65 64 63 62 61 60 60 59
66 66 65 65 66 67 67 67 67 67 67 66 65 65 64 64 62 64 66 64 64 64 65 64 64 63 63 62 60 58 59 59
66 66 65 64 67 68 67 66 65 65 64 66 64 63 63 62 62 64 65 64 64 64 62 63 64 63 63 61 59 58 58 59
64 65 65 64 63 66 65 66 65 65 64 65 63 61 64 63 63 60 60 62 62 61 62 64 63 62 62 60 59 58 57 57
63 65 65 64 63 64 64 64 65 65 65 64 64 63 63 62 60 62 63 63 60 61 64 63 62 62 60 60 58 56 49 56
63 64 66 65 63 63 65 65 65 65 65 65 64 62 62 62 62 62 63 62 62 63 62 62 62 61 60 58 55 52 50 55
62 64 65 65 63 62 65 65 63 65 64 64 65 64 64 62 62 62 63 61 63 63 61 61 62 61 59 56 53 51 50 50
62 64 65 65 63 62 63 62 61 62 63 64 64 64 64 62 63 63 62 62 62 62 61 61 61 60 57 54 53 52 50 49
57 63 64 65 63 62 61 61 62 60 62 64 64 64 63 62 62 62 63 62 63 61 60 60 60 58 55 52 51 49 48 49
53 61 63 64 64 63 62 62 63 61 60 62 63 63 63 62 62 63 63 62 61 61 60 60 60 56 53 52 49 47 48 47
49 59 62 63 64 63 63 62 63 62 61 60 60 62 62 61 62 62 62 61 60 60 60 59 59 55 51 52 51 52 50 50
48 56 61 63 62 61 62 61 62 62 62 60 59 60 61 61 62 61 60 59 59 59 58 58 57 56 52 52 52 53 54 53
44 52 59 63 62 61 61 60 61 61 61 59 59 60 61 62 61 60 59 59 58 59 58 57 57 56 52 52 52 53 53 54
39 48 55 62 62 61 60 60 59 59 60 59 60 61 62 61 61 60 59 59 57 58 58 57 56 55 54 51 49 47 51 53
43 46 52 62 61 58 58 57 57 57 58 56 60 61 59 59 59 60 59 58 58 58 59 57 56 54 54 52 50 46 48 50
45 48 52 61 60 58 58 57 56 55 54 56 60 60 59 58 59 59 58 58 58 58 58 57 56 55 54 53 52 49 49 47
46 51 57 60 60 59 58 57 55 53 54 57 59 59 59 58 58 58 59 58 58 59 58 57 56 55 54 53 51 50 49 49
45 53 58 59 59 59 58 57 55 53 55 56 58 58 57 57 57 58 59 59 58 58 58 57 56 55 54 54 53 52 51 49
47 54 57 57 59 58 58 57 55 53 55 56 58 58 58 57 57 56 57 57 58 57 56 56 56 56 55 56 55 54 53 50

GFSFLT2_sfc_30mbdewp_102.txt.gz
Dewpoint
67 66 67 68 68 69 69 68 69 68 69 68 68 68 67 65 66 67 67 66 66 67 65 64 64 64 63 63 63 61 62 62
67 67 67 67 68 68 68 68 68 68 67 67 67 67 66 67 66 66 67 67 67 65 65 64 63 63 64 63 62 61 61 62
68 68 67 67 68 68 67 67 67 67 67 67 67 66 66 66 66 66 66 66 65 64 64 64 63 62 62 63 61 60 61 60
67 67 67 67 66 68 67 67 67 67 67 67 67 65 65 64 65 65 65 65 64 64 64 63 64 63 62 62 61 61 60 60
66 67 67 67 65 69 67 67 66 66 66 66 66 64 65 64 64 65 64 64 64 64 64 63 63 62 62 61 60 60 60 60
66 66 67 66 68 68 67 66 66 65 66 66 65 64 64 64 64 63 64 64 63 62 63 63 62 62 62 61 59 59 60 60
64 66 66 66 66 64 64 65 66 65 65 66 65 64 64 64 64 63 63 63 62 62 63 63 62 61 63 61 60 59 58 58
65 65 66 66 66 65 65 64 65 65 64 66 66 65 64 63 63 62 63 63 63 63 63 62 61 62 62 61 58 58 58 58
65 65 66 66 66 66 65 64 65 65 65 65 66 66 65 63 63 63 64 63 64 63 62 62 61 62 61 60 57 53 55 57
65 65 65 65 66 65 65 64 64 64 65 65 65 65 65 64 63 63 64 63 63 62 61 61 60 61 61 60 54 53 51 55
63 65 65 64 66 65 64 63 63 62 64 65 65 65 64 64 63 63 62 62 63 62 61 59 59 60 60 60 54 51 51 52
63 65 65 64 64 65 63 63 63 62 62 63 63 64 64 64 63 63 62 62 62 62 60 60 59 59 60 58 50 51 50 52
58 64 65 65 63 63 62 62 62 61 62 61 61 62 62 62 62 62 62 62 61 61 60 60 59 59 58 54 54 55 53 53
42 61 64 64 63 63 62 61 61 61 61 62 61 61 62 62 62 62 62 61 60 60 59 58 58 59 55 51 50 53 54 54
38 50 62 64 63 62 62 62 61 61 61 61 61 60 61 62 62 61 61 60 59 60 59 57 56 58 57 51 50 49 52 54
42 40 51 63 63 61 61 60 59 60 60 60 60 61 62 62 62 61 60 60 59 59 60 58 56 56 57 53 51 52 49 50
44 44 44 62 62 62 61 59 59 59 59 59 60 61 60 59 59 60 59 59 59 59 59 59 58 56 54 53 51 52 50 50
50 48 47 62 63 61 60 60 58 58 58 58 59 58 59 58 58 59 60 59 59 58 58 58 58 57 55 55 52 50 50 50
52 48 49 62 62 61 61 60 59 57 56 57 58 58 58 57 58 58 58 59 59 59 59 58 58 58 57 55 54 52 52 51
51 52 50 61 61 60 60 60 59 57 56 57 58 57 57 58 58 58 58 59 59 59 60 59 59 58 57 55 54 54 53 51

GFSFLT2_sfc_30mbdewp_105.txt.gz
Dewpoint
67 68 68 68 68 68 68 69 69 69 69 69 69 68 67 65 67 67 65 65 64 64 63 62 64 63 64 64 63 62 64 64
66 66 67 67 68 68 68 67 68 68 68 68 68 68 66 65 67 67 65 64 64 66 66 64 63 63 63 64 62 63 63 63
66 66 66 67 67 67 68 67 67 67 67 67 67 67 66 66 67 67 66 65 66 66 64 63 62 60 60 62 62 62 63 62
67 66 66 67 67 67 67 67 66 66 66 67 67 66 66 66 66 66 66 66 65 65 64 64 63 62 61 61 61 62 61 62
67 67 67 67 67 66 67 67 66 66 66 66 66 65 65 65 65 66 66 65 63 64 63 63 62 61 61 60 61 61 61 62
66 67 66 67 68 67 67 67 66 65 65 66 65 64 64 64 64 64 64 64 63 63 63 62 62 61 60 59 60 61 61 61
66 66 67 66 67 67 67 66 66 65 66 66 65 64 64 63 63 64 63 63 63 63 62 62 61 61 61 61 61 61 60 60
66 65 66 66 66 66 66 66 65 65 65 65 64 64 64 64 63 63 64 63 63 62 62 62 61 61 61 61 61 60 60 60
65 65 65 66 65 64 64 65 65 64 64 66 65 64 64 63 63 62 62 63 62 62 62 62 61 61 61 61 60 60 59 59
64 65 65 66 66 65 64 64 64 65 64 64 65 65 64 63 62 62 62 62 63 62 62 61 60 61 61 60 61 60 58 59
64 65 65 65 66 66 64 64 64 65 65 64 65 65 64 63 63 63 63 62 63 62 61 61 59 60 60 60 60 58 57 57
64 65 64 65 65 65 64 63 63 63 64 65 64 64 64 63 63 63 62 62 62 62 60 60 59 59 60 60 60 58 55 55
64 64 64 64 64 64 63 62 62 61 63 64 64 64 64 64 63 62 62 61 61 61 60 59 59 60 59 58 58 56 53 54
64 64 64 64 63 64 63 62 62 61 61 62 62 64 63 63 62 62 62 61 61 61 60 59 58 59 56 55 52 53 54 53
63 64 64 64 63 63 61 61 61 60 60 60 61 61 62 62 61 62 62 62 61 61 60 59 56 59 57 52 50 48 51 54
49 63 64 64 63 62 60 60 59 60 60 60 61 61 61 62 61 61 61 61 60 60 60 59 58 57 58 57 52 53 48 49
50 51 60 64 62 62 60 60 60 60 60 61 60 60 61 61 62 61 60 60 60 60 60 59 59 57 56 56 53 52 52 50
47 48 51 60 62 61 60 59 60 59 59 59 59 60 60 60 59 60 60 60 60 60 60 59 58 58 57 55 53 51 50 49
44 45 47 50 62 61 61 60 60 59 59 58 59 59 58 58 58 58 58 59 59 59 59 59 59 58 57 56 55 54 52 51
41 43 45 48 59 61 61 60 59 59 58 59 58 58 57 57 57 57 58 59 59 59 59 59 59 58 57 57 56 55 54 52

GFSFLT2_sfc_30mbdewp_108.txt.gz
Dewpoint
67 68 68 69 68 69 69 70 70 70 69 69 69 68 68 68 65 63 64 66 65 62 62 63 65 65 64 64 64 65 65 65
66 67 68 68 68 68 68 69 69 69 69 69 68 67 68 68 66 64 66 66 63 61 61 63 63 65 65 63 63 64 64 64
66 66 67 67 67 67 68 68 68 68 68 68 68 67 66 67 67 66 65 65 64 64 64 63 63 63 64 63 63 64 64 64
65 65 66 66 67 67 67 67 66 66 67 67 67 67 66 66 67 65 65 65 64 65 65 63 62 62 63 63 63 63 63 63
65 65 66 66 66 66 66 66 65 65 66 66 66 66 66 66 66 66 65 65 66 65 64 63 62 61 61 61 62 62 63 63
66 66 66 67 67 66 66 65 64 65 65 66 65 65 65 65 65 65 65 64 63 63 62 62 61 60 60 60 62 62 62 62
66 66 66 67 67 66 66 65 65 65 65 66 65 64 64 64 64 64 64 63 62 62 61 61 61 61 60 60 61 62 62 62
66 66 66 67 67 66 66 66 66 65 65 65 64 64 63 63 64 63 63 63 62 62 61 61 61 61 60 61 61 62 61 62
66 66 66 66 66 66 66 66 65 65 65 65 64 64 63 63 63 63 63 63 62 62 62 62 61 61 60 61 61 61 61 61
66 65 65 66 66 66 65 66 65 64 65 65 64 64 64 63 62 62 63 62 62 62 61 61 60 60 60 60 61 60 60 61
65 65 65 66 65 65 64 65 64 64 64 64 64 64 63 63 63 62 62 62 62 62 62 61 60 60 60 60 60 60 60 61
64 65 64 65 65 65 64 63 64 64 64 64 64 65 63 63 62 62 62 61 62 61 61 61 59 59 59 60 60 59 59 60
63 64 64 65 64 64 63 62 62 64 64 64 64 65 64 63 62 62 62 61 61 61 60 59 58 59 59 58 58 58 58 58
62 63 64 64 64 64 64 63 62 62 63 64 64 64 64 63 63 62 61 61 61 60 59 59 58 59 56 57 54 54 56 57
63 64 64 64 63 64 62 62 61 61 61 62 63 64 63 63 63 62 61 61 60 61 60 58 57 58 57 55 52 50 53 54
50 63 64 63 63 63 62 61 60 60 60 60 61 63 63 62 62 62 61 61 61 61 61 59 58 56 58 56 53 52 50 50
46 46 52 56 63 63 61 61 60 60 60 60 60 61 61 62 61 61 61 61 61 60 60 60 59 57 57 56 54 52 51 51
43 44 45 47 52 62 61 60 59 59 59 59 59 59 60 61 61 61 61 60 60 59 60 59 59 58 58 57 54 51 50 50
40 41 42 44 46 52 61 60 59 59 59 59 59 59 60 60 61 61 60 60 60 60 60 60 59 58 58 57 55 52 51 51
38 39 41 43 45 47 59 61 60 59 60 59 59 59 59 59 59 59 59 59 59 60 59 59 59 59 58 57 56 54 53 53

GFSFLT2_sfc_30mbdewp_111.txt.gz
Dewpoint
68 69 69 69 69 70 70 70 70 69 69 69 69 69 68 68 67 67 67 66 65 66 66 66 66 66 65 65 65 65 65 65
66 67 68 68 68 69 69 70 70 69 69 69 68 68 68 67 66 66 66 65 65 64 64 65 66 65 64 64 65 65 64 65
66 67 67 67 67 68 69 69 69 69 69 68 68 68 68 66 63 65 65 65 64 63 63 62 64 65 64 64 64 64 64 64
65 66 66 66 67 67 67 68 68 68 68 68 67 67 67 66 65 65 65 64 63 63 63 62 63 64 64 63 64 64 64 64
64 65 65 66 66 66 66 66 66 66 67 67 67 66 66 66 66 65 65 64 63 64 64 62 61 62 63 62 63 64 64 64
63 64 65 65 66 65 65 65 65 65 66 66 66 65 65 65 65 65 64 65 64 63 63 61 60 61 61 61 62 63 63 64
63 64 64 65 65 65 65 64 64 64 65 66 66 65 64 65 64 64 64 63 63 62 61 61 60 60 60 60 61 62 63 63
65 64 64 65 65 65 65 65 64 64 65 65 65 65 64 64 63 63 63 63 62 62 61 60 60 60 60 60 60 62 62 63
65 65 65 65 66 65 65 65 65 64 65 65 64 64 64 64 63 62 63 63 62 61 60 60 59 60 59 60 61 61 62 62
66 66 66 66 66 66 65 65 65 64 65 65 64 64 63 63 63 63 62 63 62 61 60 60 60 59 59 59 60 61 61 62
65 65 65 65 66 66 65 65 65 64 65 65 64 64 63 63 62 62 62 62 61 61 60 60 59 59 59 60 60 60 61 61
65 65 65 65 66 65 64 65 65 64 64 65 64 63 63 63 62 62 62 61 61 61 60 60 60 58 59 59 60 59 60 61
63 65 65 65 64 64 63 63 64 64 64 64 64 63 63 63 62 62 61 61 61 61 61 60 60 60 58 58 59 59 59 60
58 64 64 65 64 64 63 64 63 64 64 63 64 64 63 63 62 61 61 61 61 60 60 59 59 59 57 56 54 54 57 58
58 62 64 64 64 64 63 62 62 61 62 63 63 63 64 63 62 62 61 61 60 60 60 59 58 58 58 56 52 51 54 56
45 59 64 64 64 64 62 61 61 61 61 63 63 63 63 63 63 62 61 61 61 61 60 60 59 57 58 58 55 53 52 50
42 45 48 51 62 64 62 62 62 61 61 61 62 62 63 63 62 62 62 62 62 61 61 60 60 58 58 57 55 54 53 51
41 42 44 46 47 55 62 62 61 60 60 60 60 61 62 62 62 62 61 61 61 61 61 60 60 59 58 57 56 53 52 51
39 40 42 43 45 46 51 62 61 60 60 59 59 60 60 61 61 61 61 61 61 61 60 60 59 59 58 58 57 55 53 52
38 38 40 41 43 45 47 49 61 60 59 59 59 59 59 60 61 61 61 61 60 60 59 59 59 59 59 59 58 56 55 54

GFSFLT2_sfc_30mbdewp_114.txt.gz
Dewpoint
68 69 69 70 70 70 70 69 69 69 69 70 71 70 68 68 67 67 67 68 68 68 67 67 67 67 66 66 66 65 65 65
66 67 68 69 69 70 69 69 69 69 69 69 69 69 68 67 67 67 67 66 67 67 66 66 66 66 65 65 65 65 65 65
65 66 67 67 68 69 69 69 69 68 69 68 68 68 68 67 66 67 66 65 65 65 65 66 65 65 64 65 65 65 64 64
64 65 66 66 67 68 68 69 69 68 68 68 67 68 67 66 65 66 65 65 64 63 62 64 64 64 64 65 64 64 64 64
64 64 65 66 66 66 67 67 67 68 68 67 67 67 67 65 64 65 64 65 63 64 62 62 62 63 63 63 64 64 64 64
63 64 64 65 65 65 65 66 66 66 67 67 66 66 66 65 64 64 64 63 62 63 62 61 61 62 62 62 63 63 64 64
63 64 64 65 64 64 64 65 65 65 65 66 66 65 65 65 65 64 64 64 63 62 61 60 60 60 61 61 61 62 63 63
62 63 64 64 64 63 64 64 64 64 65 66 66 65 65 64 64 64 64 63 62 61 61 60 59 59 59 60 60 62 62 63
62 62 63 64 64 64 64 64 63 63 64 65 65 65 64 64 63 63 63 63 62 61 60 60 59 59 59 59 60 61 62 62
64 63 63 64 64 64 64 64 63 63 64 64 64 64 64 64 63 62 63 62 61 61 60 59 59 59 59 59 60 61 61 62
64 64 63 63 64 64 64 64 64 63 64 64 64 64 63 63 63 62 62 62 61 61 60 59 58 58 58 59 59 60 61 62
64 65 65 64 65 65 64 64 64 64 64 64 64 64 63 63 62 62 62 61 61 61 60 60 59 59 59 59 59 60 60 59
64 65 65 65 65 63 62 63 63 63 64 64 63 63 63 62 62 61 62 61 60 60 59 58 59 59 58 58 59 59 59 60
58 64 64 65 64 64 63 63 63 64 64 64 64 63 63 62 62 61 61 61 60 59 60 59 59 60 57 56 54 55 58 59
50 62 64 65 65 64 63 63 63 63 62 63 63 63 63 62 62 62 61 61 60 61 60 60 58 59 58 55 53 51 54 56
44 53 62 64 65 64 62 62 61 62 63 63 63 63 63 63 62 62 61 61 61 61 61 60 59 57 58 58 56 54 52 50
42 45 47 50 56 64 63 62 62 61 62 62 63 63 63 63 63 62 62 62 61 61 61 60 60 58 58 57 57 55 54 52
40 42 43 45 49 52 60 62 62 61 61 61 61 62 62 62 62 62 62 62 61 61 61 60 60 60 59 58 57 55 53 52
39 40 41 43 45 47 49 54 62 61 61 61 61 61 61 61 62 61 62 62 62 61 61 61 60 60 59 58 58 57 56 54
37 38 40 41 43 45 47 49 51 61 60 60 60 61 61 61 62 62 61 61 61 61 61 60 60 60 59 59 58 58 58 56

GFSFLT2_sfc_30mbdewp_117.txt.gz
Dewpoint
68 69 69 70 70 70 69 69 69 70 70 70 71 70 69 69 68 69 69 69 69 68 68 68 68 68 67 66 66 66 65 65
67 68 69 69 70 69 69 69 69 69 70 70 70 69 68 68 67 68 68 68 68 67 67 67 67 67 66 66 66 65 65 64
66 66 67 69 68 69 69 69 68 69 69 69 69 68 68 67 66 67 67 67 67 67 67 67 66 66 66 65 65 66 65 64
64 65 66 67 67 68 69 69 68 68 68 68 69 69 68 67 66 66 66 66 66 66 66 66 66 66 65 65 65 65 66 65
63 64 65 66 66 67 67 67 68 68 68 68 68 68 68 67 66 65 65 64 63 63 64 65 65 65 65 65 65 65 65 65
62 63 64 65 65 66 66 67 67 68 68 68 68 66 67 66 64 65 65 64 63 62 61 62 63 65 64 64 64 65 65 65
62 63 63 64 64 65 65 65 66 66 67 68 67 66 66 66 65 64 63 64 64 63 61 61 62 63 64 63 62 63 64 64
61 63 63 64 64 64 64 65 65 65 66 67 67 66 65 65 65 65 64 64 64 62 61 61 61 62 62 62 62 62 63 63
62 62 64 64 63 63 63 64 65 66 66 66 66 66 65 65 65 65 65 64 63 63 62 62 61 61 61 61 61 61 62 63
62 61 63 64 63 63 63 64 64 65 66 65 65 66 66 64 64 64 65 64 63 63 62 61 61 60 60 60 60 60 61 62
62 62 62 63 63 63 63 63 63 64 65 64 64 65 66 65 64 64 64 63 62 62 61 61 60 59 59 60 60 60 60 61
62 63 62 63 63 63 63 63 63 63 63 64 64 65 65 65 64 63 63 62 62 62 61 61 61 60 58 59 60 61 61 61
61 63 62 62 62 62 61 61 61 62 63 63 64 64 64 65 63 62 62 62 61 61 61 61 60 61 59 58 59 60 60 61
61 63 64 63 62 62 62 62 62 62 63 63 64 64 64 64 63 62 61 61 61 61 60 59 60 60 58 57 54 56 58 60
49 62 64 64 64 64 64 64 64 63 62 62 63 64 64 64 63 63 62 62 60 61 60 60 58 59 59 56 53 51 55 57
47 54 64 64 64 64 63 62 61 62 62 63 62 63 63 64 63 63 62 62 61 61 61 61 60 58 59 59 57 55 53 52
43 47 49 53 63 64 63 62 63 63 63 63 63 63 63 64 63 63 63 62 62 62 61 61 61 59 58 58 58 57 56 53
41 44 45 47 50 54 61 63 63 62 62 62 63 63 63 64 63 63 63 63 62 62 62 61 61 60 59 58 57 56 55 54
39 41 42 44 46 48 50 53 58 62 62 62 61 61 62 63 63 63 63 63 62 62 62 61 61 60 60 59 58 57 56 55
36 38 40 41 44 46 48 50 51 53 61 62 62 61 62 62 63 63 63 62 61 62 62 61 61 61 60 60 59 59 59 57